Location: Unspecified
(0.0000°N, 0.0000°E)
Time: 13:11:15
(UTC+00:00)

N. Korean satellite - Pass Details

Date: 11 June 2021
Orbit: 450 x 500 km, 97.2° (Epoch: 18 June)

Event Time Altitude Azimuth Distance (km) Brightness Sun altitude
Rises 04:06:54 0° 45° (NE) 2,538 11.4 -25.8°
Reaches altitude 10° 04:09:58 10° 75° (ENE) 1,674 10.3 -25.1°
Maximum altitude 04:11:34 13° 102° (ESE) 1,524 9.7 -24.7°
Drops below altitude 10° 04:13:11 10° 128° (SE) 1,687 9.6 -24.3°
Enters shadow 04:15:42 - 154° (SSE) 2,374 10.1 -23.8°
